{"data":{"norad_id":66045,"epoch":"2026-05-25T03:34:42.661632Z","epoch_age_seconds":68914,"freshness":"FRESH","line1":"1 66045U 25233N   26145.14910488  .00000133  00000+0  18669-3 0  9998","line2":"2 66045  89.0026  45.5224 0002155  68.3874 291.7506 13.51007238 30079","mean_motion":13.51007238,"eccentricity":0.0002155,"inclination_deg":89.0026,"raan_deg":45.5224,"arg_perigee_deg":68.3874,"mean_anomaly_deg":291.7506,"bstar":0.00018669,"rev_number":3007,"period_min":106.58714176334,"perigee_km":1066.9502259796,"apogee_km":1070.1597502265,"semimajor_km":7446.6919881031,"source":"CELESTRAK","updated_at":"2026-05-25T13:38:05.922609Z"}}